Radiation Dose at Monitoring Post of Fukushima Daini Nuclear Power Station
Date,Time,MP-1(microSv/h),MP-2(microSv/h),MP-3(microSv/h),MP-4(microSv/h),MP-5(microSv/h),MP-6(microSv/h),MP-7(microSv/h),Wind Direction,Wind Velocity(m/s),Rain
2017/09/25,00:00,0.343,0.212,0.346,0.327,0.313,0.173,0.103,southwest,3.3,No
2017/09/25,00:10,0.342,0.212,0.346,0.326,0.316,0.172,0.103,southwest,3.4,No
2017/09/25,00:20,0.343,0.212,0.346,0.327,0.314,0.173,0.103,south-southwest,3.2,No
2017/09/25,00:30,0.342,0.213,0.347,0.325,0.315,0.173,0.102,south-southwest,3.8,No
2017/09/25,00:40,0.342,0.213,0.346,0.328,0.314,0.173,0.102,south-southwest,4.0,No
2017/09/25,00:50,0.342,0.212,0.345,0.325,0.317,0.173,0.102,south-southwest,3.4,No
2017/09/25,01:00,0.342,0.213,0.348,0.328,0.313,0.173,0.103,southwest,2.8,No
2017/09/25,01:10,0.343,0.213,0.346,0.325,0.318,0.172,0.103,southwest,2.5,No
2017/09/25,01:20,0.341,0.212,0.348,0.327,0.313,0.173,0.103,south-southwest,2.2,No
2017/09/25,01:30,0.342,0.212,0.345,0.324,0.316,0.172,0.102,south-southwest,2.0,No
2017/09/25,01:40,0.342,0.213,0.348,0.328,0.315,0.173,0.103,south-southwest,1.4,No
2017/09/25,01:50,0.343,0.213,0.346,0.326,0.317,0.172,0.102,south,1.5,No
2017/09/25,02:00,0.341,0.213,0.348,0.327,0.312,0.173,0.103,south-southwest,2.2,No
2017/09/25,02:10,0.344,0.212,0.346,0.325,0.316,0.172,0.102,south-southwest,2.2,No
2017/09/25,02:20,0.341,0.213,0.348,0.328,0.312,0.172,0.102,south-southwest,2.2,No
2017/09/25,02:30,0.343,0.211,0.344,0.326,0.316,0.172,0.103,south-southwest,2.2,No
2017/09/25,02:40,0.340,0.212,0.347,0.327,0.314,0.172,0.102,south-southwest,2.8,No
2017/09/25,02:50,0.346,0.213,0.347,0.326,0.316,0.173,0.103,south-southwest,2.8,No
2017/09/25,03:00,0.340,0.213,0.347,0.328,0.315,0.173,0.103,south-southwest,3.1,No
2017/09/25,03:10,0.342,0.212,0.348,0.328,0.316,0.173,0.103,south-southwest,3.6,No
2017/09/25,03:20,0.342,0.212,0.346,0.326,0.314,0.173,0.103,south,3.4,No
2017/09/25,03:30,0.343,0.213,0.347,0.328,0.315,0.172,0.104,south,2.3,No
2017/09/25,03:40,0.342,0.213,0.346,0.326,0.314,0.173,0.103,south,2.8,No
2017/09/25,03:50,0.343,0.213,0.348,0.328,0.316,0.173,0.102,south,2.9,No
2017/09/25,04:00,0.342,0.213,0.346,0.325,0.313,0.174,0.102,south,3.3,No
2017/09/25,04:10,0.343,0.214,0.349,0.326,0.317,0.173,0.103,south,2.8,No
2017/09/25,04:20,0.343,0.212,0.344,0.326,0.313,0.173,0.103,south,3.7,No
2017/09/25,04:30,0.342,0.213,0.347,0.328,0.318,0.172,0.103,south,3.4,No
2017/09/25,04:40,0.343,0.213,0.346,0.324,0.314,0.173,0.103,south,2.8,No
2017/09/25,04:50,0.342,0.213,0.347,0.328,0.317,0.172,0.103,south,2.8,No
2017/09/25,05:00,0.343,0.214,0.345,0.325,0.314,0.174,0.104,south-southwest,2.3,No
2017/09/25,05:10,0.342,0.212,0.346,0.328,0.316,0.173,0.103,south-southwest,1.2,No
2017/09/25,05:20,0.344,0.212,0.346,0.325,0.313,0.173,0.103,south-southwest,1.6,No
2017/09/25,05:30,0.342,0.213,0.348,0.326,0.318,0.173,0.103,south,0.7,No
2017/09/25,05:40,0.342,0.214,0.346,0.325,0.313,0.174,0.103,north,0.6,No
2017/09/25,05:50,0.341,0.214,0.348,0.328,0.316,0.173,0.102,north-northwest,2.8,No
2017/09/25,06:00,0.343,0.213,0.346,0.324,0.313,0.173,0.103,north,4.7,No
2017/09/25,06:10,0.343,0.213,0.348,0.328,0.316,0.173,0.103,north,5.2,No
2017/09/25,06:20,0.341,0.213,0.347,0.326,0.314,0.172,0.103,north,6.2,No
2017/09/25,06:30,0.343,0.214,0.348,0.327,0.317,0.172,0.103,north,4.1,No
2017/09/25,06:40,0.341,0.212,0.346,0.325,0.315,0.172,0.103,north,7.4,No
2017/09/25,06:50,0.344,0.215,0.349,0.327,0.315,0.172,0.103,north,6.2,No
2017/09/25,07:00,0.341,0.213,0.345,0.325,0.315,0.173,0.103,north,4.8,No
2017/09/25,07:10,0.344,0.213,0.347,0.325,0.313,0.172,0.103,north,3.6,No
2017/09/25,07:20,0.340,0.213,0.345,0.326,0.317,0.174,0.102,north,3.9,No
2017/09/25,07:30,0.343,0.212,0.349,0.325,0.314,0.173,0.102,north,3.9,No
2017/09/25,07:40,0.342,0.213,0.345,0.327,0.316,0.172,0.102,north,2.8,No
2017/09/25,07:50,0.340,0.211,0.346,0.325,0.314,0.173,0.103,north,3.5,No
2017/09/25,08:00,0.343,0.213,0.346,0.322,0.313,0.173,0.101,north-northwest,3.4,No
2017/09/25,08:10,0.340,0.213,0.347,0.327,0.314,0.173,0.102,north,2.1,No
2017/09/25,08:20,0.344,0.211,0.347,0.326,0.314,0.172,0.102,north-northeast,2.8,No
2017/09/25,08:30,0.342,0.213,0.345,0.325,0.312,0.173,0.101,north-northeast,3.9,No
2017/09/25,08:40,0.339,0.214,0.347,0.322,0.317,0.172,0.101,north,4.0,No
2017/09/25,08:50,0.343,0.213,0.344,0.324,0.315,0.171,0.102,north-northeast,3.7,No
2017/09/25,09:00,0.341,0.212,0.345,0.327,0.311,0.173,0.102,northeast,4.5,No
2017/09/25,09:10,0.340,0.211,0.348,0.325,0.314,0.173,0.103,north-northeast,3.8,No
2017/09/25,09:20,0.343,0.209,0.345,0.325,0.318,0.173,0.102,north-northeast,2.0,No
2017/09/25,09:30,0.343,0.211,0.345,0.323,0.315,0.172,0.101,north-northeast,2.4,No
2017/09/25,09:40,0.341,0.213,0.348,0.324,0.313,0.172,0.101,northeast,2.3,No
2017/09/25,09:50,0.339,0.214,0.344,0.324,0.313,0.172,0.100,northeast,2.0,No
2017/09/25,10:00,0.338,0.212,0.346,0.324,0.312,0.172,0.101,northeast,3.1,No
2017/09/25,10:10,0.338,0.212,0.348,0.323,0.312,0.172,0.101,northeast,3.3,No
2017/09/25,10:20,0.339,0.212,0.344,0.323,0.311,0.172,0.100,northeast,3.5,No
2017/09/25,10:30,0.338,0.212,0.346,0.323,0.312,0.172,0.101,northeast,2.2,No
2017/09/25,10:40,0.338,0.211,0.349,0.325,0.313,0.173,0.102,northeast,2.3,No
2017/09/25,10:50,0.339,0.210,0.345,0.325,0.312,0.174,0.102,east,2.5,No
2017/09/25,11:00,0.338,0.213,0.344,0.325,0.313,0.172,0.101,northeast,2.9,No
2017/09/25,11:10,0.339,0.212,0.345,0.324,0.312,0.172,0.102,east,2.4,No
2017/09/25,11:20,0.339,0.211,0.344,0.324,0.315,0.173,0.101,east,2.4,No
2017/09/25,11:30,0.339,0.212,0.343,0.326,0.313,0.173,0.101,east,2.1,No
2017/09/25,11:40,0.340,0.211,0.343,0.324,0.314,0.172,0.101,east,1.9,No
2017/09/25,11:50,0.340,0.212,0.344,0.325,0.317,0.172,0.102,east,1.2,No
2017/09/25,12:00,0.345,0.216,0.349,0.323,0.319,0.173,0.104,southeast,1.1,No
2017/09/25,12:10,0.347,0.214,0.348,0.327,0.318,0.173,0.104,east-northeast,1.7,No
2017/09/25,12:20,0.343,0.213,0.346,0.328,0.315,0.173,0.103,east-northeast,1.1,No
2017/09/25,12:30,0.341,0.213,0.346,0.327,0.314,0.172,0.103,east-northeast,1.4,No
2017/09/25,12:40,0.339,0.212,0.345,0.326,0.314,0.173,0.102,east-northeast,2.1,No
2017/09/25,12:50,0.339,0.212,0.344,0.326,0.314,0.174,0.102,east-southeast,1.6,No
2017/09/25,13:00,0.344,0.211,0.344,0.326,0.314,0.173,0.101,east-southeast,2.2,No
2017/09/25,13:10,0.345,0.211,0.343,0.323,0.313,0.173,0.101,southeast,1.9,No
2017/09/25,13:20,0.343,0.211,0.345,0.324,0.314,0.173,0.101,southeast,1.5,No
2017/09/25,13:30,0.341,0.211,0.344,0.325,0.314,0.173,0.101,east-southeast,2.2,No
2017/09/25,13:40,0.341,0.212,0.345,0.325,0.313,0.172,0.101,south-southeast,3.0,No
2017/09/25,13:50,0.339,0.211,0.346,0.325,0.315,0.173,0.101,southeast,2.0,No
2017/09/25,14:00,0.343,0.211,0.344,0.326,0.315,0.173,0.101,southeast,2.0,No
2017/09/25,14:10,0.345,0.212,0.345,0.325,0.315,0.173,0.101,southeast,1.7,No
2017/09/25,14:20,0.344,0.211,0.345,0.324,0.314,0.173,0.102,southeast,1.9,No
2017/09/25,14:30,0.340,0.212,0.346,0.326,0.314,0.172,0.101,southeast,1.6,No
2017/09/25,14:40,0.340,0.211,0.343,0.330,0.313,0.172,0.101,south-southeast,1.6,No
2017/09/25,14:50,0.345,0.212,0.347,0.327,0.313,0.173,0.102,south,1.9,No
2017/09/25,15:00,0.346,0.212,0.349,0.325,0.315,0.174,0.101,south-southeast,1.8,No
2017/09/25,15:10,0.341,0.215,0.347,0.327,0.320,0.174,0.101,south-southeast,1.5,No
2017/09/25,15:20,0.340,0.213,0.345,0.330,0.317,0.173,0.101,south-southeast,0.7,No
2017/09/25,15:30,0.344,0.212,0.351,0.326,0.314,0.172,0.102,east-southeast,1.0,No
2017/09/25,15:40,0.343,0.213,0.351,0.323,0.315,0.173,0.102,southeast,1.4,No
2017/09/25,15:50,0.341,0.214,0.346,0.329,0.318,0.173,0.103,south-southeast,1.6,No
2017/09/25,16:00,0.342,0.213,0.345,0.329,0.318,0.173,0.102,south-southeast,2.6,No
2017/09/25,16:10,0.345,0.212,0.349,0.324,0.314,0.173,0.102,south-southeast,3.9,No
2017/09/25,16:20,0.342,0.215,0.346,0.327,0.315,0.172,0.102,south-southeast,3.3,No
2017/09/25,16:30,0.341,0.213,0.347,0.329,0.318,0.173,0.102,south,3.4,No
2017/09/25,16:40,0.346,0.213,0.350,0.325,0.314,0.173,0.102,south,3.2,No
2017/09/25,16:50,0.343,0.215,0.346,0.326,0.314,0.172,0.103,south,3.0,No
2017/09/25,17:00,0.340,0.213,0.347,0.329,0.318,0.173,0.102,south,3.6,No
2017/09/25,17:10,0.345,0.212,0.349,0.326,0.316,0.172,0.101,south,3.4,No
2017/09/25,17:20,0.345,0.213,0.345,0.326,0.314,0.171,0.102,south,3.4,No
2017/09/25,17:30,0.341,0.213,0.345,0.330,0.318,0.172,0.102,south-southwest,2.7,No
2017/09/25,17:40,0.343,0.212,0.348,0.325,0.315,0.173,0.101,south,2.9,No
2017/09/25,17:50,0.344,0.214,0.345,0.328,0.315,0.172,0.102,south,0.9,No
2017/09/25,18:00,0.341,0.211,0.347,0.330,0.317,0.172,0.102,-,CALM,No
2017/09/25,18:10,0.344,0.213,0.349,0.325,0.313,0.172,0.101,south,0.9,No
2017/09/25,18:20,0.343,0.213,0.345,0.328,0.318,0.172,0.101,south,1.9,No
2017/09/25,18:30,0.341,0.212,0.349,0.328,0.315,0.173,0.102,south,1.1,No
2017/09/25,18:40,0.344,0.214,0.346,0.326,0.314,0.172,0.103,south,1.2,No
2017/09/25,18:50,0.341,0.213,0.345,0.329,0.317,0.172,0.102,south,0.7,No
2017/09/25,19:00,0.344,0.214,0.349,0.327,0.315,0.173,0.101,south-southwest,1.0,No
2017/09/25,19:10,0.344,0.213,0.346,0.327,0.316,0.172,0.102,south-southwest,1.4,No
2017/09/25,19:20,0.340,0.213,0.350,0.328,0.315,0.174,0.101,-,CALM,No
2017/09/25,19:30,0.345,0.213,0.348,0.327,0.314,0.173,0.102,-,CALM,No
2017/09/25,19:40,0.341,0.214,0.347,0.329,0.318,0.173,0.101,south,0.8,No
2017/09/25,19:50,0.345,0.212,0.348,0.327,0.314,0.173,0.102,south,0.7,No
2017/09/25,20:00,0.341,0.215,0.345,0.328,0.318,0.173,0.102,-,CALM,No
2017/09/25,20:10,0.343,0.213,0.348,0.328,0.316,0.173,0.103,south-southwest,2.1,No
2017/09/25,20:20,0.345,0.214,0.346,0.327,0.316,0.173,0.103,south-southwest,2.5,No
2017/09/25,20:30,0.340,0.214,0.350,0.330,0.318,0.174,0.102,south-southwest,3.6,No
2017/09/25,20:40,0.346,0.213,0.349,0.327,0.314,0.173,0.104,south-southwest,3.4,No
2017/09/25,20:50,0.343,0.213,0.349,0.330,0.319,0.174,0.103,south-southwest,2.0,No
2017/09/25,21:00,0.344,0.213,0.349,0.328,0.315,0.173,0.103,south,3.6,No
2017/09/25,21:10,0.345,0.213,0.347,0.328,0.317,0.174,0.103,south,3.6,No
2017/09/25,21:20,0.341,0.214,0.349,0.329,0.315,0.173,0.102,south-southwest,3.1,No
2017/09/25,21:30,0.345,0.215,0.347,0.328,0.317,0.174,0.102,south-southwest,3.2,No
2017/09/25,21:40,0.341,0.214,0.350,0.330,0.317,0.173,0.103,south-southwest,3.4,No
2017/09/25,21:50,0.346,0.214,0.347,0.327,0.316,0.173,0.103,south-southwest,4.1,No
2017/09/25,22:00,0.344,0.214,0.349,0.330,0.317,0.173,0.103,south,4.2,No
2017/09/25,22:10,0.345,0.213,0.347,0.327,0.315,0.173,0.103,south-southwest,4.7,No
2017/09/25,22:20,0.343,0.215,0.350,0.329,0.318,0.173,0.103,south-southwest,4.6,No
2017/09/25,22:30,0.344,0.214,0.347,0.328,0.315,0.173,0.104,south-southwest,4.9,No
2017/09/25,22:40,0.345,0.214,0.349,0.330,0.319,0.174,0.103,south-southwest,4.6,No
2017/09/25,22:50,0.344,0.213,0.347,0.327,0.315,0.174,0.104,south-southwest,4.8,No
2017/09/25,23:00,0.345,0.213,0.347,0.327,0.317,0.175,0.103,south-southwest,4.5,No
2017/09/25,23:10,0.342,0.212,0.349,0.326,0.314,0.173,0.102,south-southwest,4.6,No
2017/09/25,23:20,0.345,0.214,0.347,0.330,0.318,0.174,0.102,south-southwest,4.2,No
2017/09/25,23:30,0.341,0.213,0.348,0.329,0.314,0.173,0.103,south-southwest,3.3,No
2017/09/25,23:40,0.346,0.214,0.348,0.328,0.317,0.175,0.102,south-southwest,3.8,No
2017/09/25,23:50,0.342,0.214,0.349,0.327,0.314,0.174,0.103,south-southwest,3.0,No
